Погода в Сибирском

Россия / Алтайский край     53°34′44″N   83°46′00″E
темп.,
°C
ветер,
м/с
пор.,
м/с
влажн.,
%
обл.,
%
осадки,
мм/ч
давл.,
гПа
погр.,
м
16 мая, вс
вс1601:00+15юз3114670 0.0 1018193
04:00+13юз245799 0.1 101862
07:00+15юз411535 0.1 1016309
10:00+22юз59405 0.1 1015776
13:00+26зюз69355 0.7 10141587
16:00+28з69308 0.0 10113048
19:00+26з6113567 0.0 10101857
22:00+15ссз3989100 2.8 1013398
17 мая, пн
пн1701:00+15зсз3895100 3.4 1012320
04:00+13сз229521 0.0 101337
07:00+14ссз249188 0.0 1015167
10:00+17с337391 0.0 1016821
13:00+21с345036 0.0 10161450
16:00+20ссз4551100 0.0 10151350
19:00+20ссз255016 0.0 10151245
22:00+15всв11745 0.0 101511
18 мая, вт
вт1801:00+13ююв2277100 0.0 101536
04:00+13юз2383100 0.0 101443
07:00+16ююз513706 0.1 1010431
10:00+22юз595279 0.4 1008699
13:00+27з7113598 0.4 10061990
16:00+28з8133057 0.0 10053240
19:00+26сз593825 0.0 10042576
22:00+17ссз237299 0.0 100745
19 мая, ср
ср1901:00+14всв2285100 0.0 100622
04:00+13ююз259228 0.4 1005120
07:00+14юз2687100 1.3 1002216
10:00+14юз399179 2.3 1000545
13:00+21з8135849 3.4 9972062
16:00+18зсз9146896 1.3 9971773
19:00+5с81687100 1.5 10061008
22:00+6с4136099 0.0 10121163
20 мая, чт
чт2001:00+4зсз377751 0.0 1014162
04:00+3сз26815 0.0 1015148
07:00+4с2767100 0.0 1017269
10:00+8ссз364592 0.1 10171803
13:00+9с6734100 0.1 10172498
16:00+9с7836100 0.0 10183006
19:00+7с584195 0.1 10202175
22:00+3ссз25560 0.0 102396